Location: Grand Champ
(45.1473°N, 1.8691°E)
Time: 16:41:44
(UTC+00:00)

Daily predictions for brighter satellites

Satellite Brightness Start Highest point End
(mag) Time Altitude Azimuth Time Altitude Azimuth Time Altitude Azimuth
Lacrosse 5 1.9 20:14:16 10° NW 20:19:22 86° SW 20:24:27 10° SE
Cosmos 1315 Rocket 2.9 20:17:01 10° N 20:21:10 67° ENE 20:25:15 10° SSE
Cosmos 1452 Rocket 3.8 20:20:02 10° S 20:25:05 48° ESE 20:30:10 10° NNE
Cosmos 1844 Rocket 3.8 20:20:10 10° N 20:25:18 33° NE 20:30:24 10° ESE
SL-8 R/B 4.1 20:21:43 10° WNW 20:26:30 63° N 20:31:15 10° E
Cosmos 2056 Rocket 4.4 20:25:21 10° SW 20:30:27 55° WNW 20:35:41 10° NNE
NOSS 3-2 (A) 4.3 20:25:56 10° WSW 20:31:28 54° NW 20:37:53 10° NNE
NOSS 3-2 (C) 3.5 20:26:57 10° SW 20:32:33 82° NW 20:39:03 10° NE
ARIANE 5 R/B 3.7 20:29:24 10° SE 20:33:21 32° ENE 20:37:22 10° N
Cosmos 1850 Rocket 4.4 20:30:01 10° NNW 20:35:12 51° ENE 20:40:11 11° SE
FALCON 9 DEB 3.5 20:33:09 10° SSW 20:36:23 41° SE 20:39:38 10° ENE
ATLAS 3B R/B 3.7 20:32:18 10° SSE 20:37:09 22° ESE 20:42:04 10° ENE
Cosmos 1908 4.4 20:34:31 10° NNE 20:37:55 28° ENE 20:40:58 12° SE
Cosmos 2263 Rocket 3.0 20:33:20 10° NW 20:38:48 49° WSW 20:44:14 10° S
SPOT 1/Viking Rocket 3.7 20:34:12 10° SSE 20:39:16 65° ENE 20:44:22 10° N
Cosmos 1758 3.3 20:36:14 10° N 20:40:13 81° E 20:44:11 10° S
Landsat 7 3.9 20:37:41 10° SSE 20:42:27 82° WSW 20:47:15 10° NNW
Spot 2 Rocket 3.9 20:40:29 10° SE 20:45:17 51° ENE 20:50:12 10° N
CZ-2C R/B 3.8 20:41:19 10° NNE 20:46:05 67° ESE 20:50:48 10° S
Cosmos 1707 2.9 20:42:18 10° SSW 20:46:10 78° W 20:50:05 10° N
Okean 2 4.3 20:42:51 10° SSW 20:46:51 51° WNW 20:50:51 10° N
Lacrosse 5 rocket 2.0 20:43:56 10° S 20:47:05 26° SE 20:50:09 10° ENE
Okean 1 Rocket 3.7 20:43:34 10° NNW 20:47:50 56° W 20:52:08 10° S
Cosmos 2173 Rocket 4.4 20:42:17 10° N 20:48:29 50° ENE 20:54:11 12° SSE
ERS-1 Rocket 3.8 20:44:31 11° SE 20:48:51 38° ENE 20:53:30 10° N
In-Cosmos 22 4.0 20:43:50 10° S 20:49:04 71° E 20:54:21 10° NNE
Cosmos 1455 Rocket 3.5 20:45:41 10° N 20:50:01 49° ENE 20:53:47 13° SSE
MetOp-B 4.3 20:49:24 10° S 20:54:45 79° WSW 21:00:09 10° NNW
Meteor 2-20 Rocket 4.4 20:50:40 10° S 20:56:47 81° E 21:02:54 10° N
BREEZE-M DEB (TANK) 2.1 20:56:56 10° SSW 20:59:06 32° SE 21:02:26 10° ENE
Cosmos 2333 Rocket 3.2 20:55:53 12° SSE 21:00:09 27° ESE 21:04:53 10° NE
Cosmos 1727 Rocket 4.1 20:54:13 10° S 21:00:33 88° W 21:06:52 10° N
USA 215 4.2 20:57:39 10° ENE 21:02:44 24° SE 21:07:48 10° S
Cosmos 1626 2.7 21:04:14 17° SSE 21:06:40 38° E 21:10:07 10° NNE
SPOT 3 Rocket 4.3 21:02:06 10° S 21:07:06 50° W 21:12:09 10° NNW
Cosmos 1953 2.4 21:03:12 10° N 21:07:16 70° E 21:10:22 17° SSE
Cosmos 1741 Rocket 4.0 21:02:43 10° NNW 21:08:01 90° WSW 21:12:22 15° SSE
SL-14 R/B 4.4 21:08:37 18° SE 21:10:47 29° E 21:14:18 10° NNE
Cosmos 2219 Rocket 3.2 21:07:37 15° SSE 21:11:13 28° ESE 21:15:59 10° NE
Cosmos 1844 3.9 21:06:57 10° NNW 21:12:29 60° ENE 21:16:41 17° SE
CENTAUR R/B 3.9 21:10:29 10° WSW 21:16:17 44° NW 21:23:10 10° NNE
Cosmos 1802 Rocket 4.1 21:12:27 10° N 21:18:42 66° E 21:23:39 17° SSE
DNEPR-1 R/B 4.5 21:19:33 10° NNW 21:23:33 38° NE 21:26:37 16° ESE
KORONAS-FOTON 4.1 21:21:57 10° SSW 21:25:43 65° W 21:29:29 10° N
Cosmos 1025 Rocket 3.0 21:22:43 16° S 21:26:13 71° E 21:30:34 10° NNE
Cosmos 2237 Rocket 4.2 21:27:21 10° ESE 21:28:13 11° E 21:29:24 10° E
Aureole 1 Rocket 4.1 21:24:16 10° NNW 21:30:10 88° WSW 21:35:49 19° SSE
CARTOSAT-1 3.9 21:27:34 16° S 21:30:51 63° WSW 21:35:09 10° NNW
Resurs 01 Rocket 3.8 21:29:07 10° SW 21:32:25 21° W 21:35:45 10° NW
Cosmos 1459 Rocket 4.0 21:26:55 10° N 21:32:59 81° W 21:37:55 16° S
Cosmos 2360 Rocket 2.3 21:27:42 10° SSW 21:33:21 80° WNW 21:39:02 10° NNE
SL-16 R/B 3.7 21:28:11 10° SW 21:33:29 39° NW 21:38:48 10° NNE
Cosmos 1461 2.9 21:29:42 10° NW 21:33:54 70° WSW 21:36:05 26° SSE
Cosmos 2322 Rocket 3.3 21:30:00 10° SW 21:35:29 48° WNW 21:41:01 10° NNE
Cosmos 1975 Rocket 4.1 21:36:00 10° SSW 21:40:09 43° WNW 21:44:22 10° N
Cosmos 1900 4.3 21:37:14 10° NNW 21:42:11 82° ENE 21:44:58 26° SE
Cosmos 1674 3.9 21:38:45 10° SSW 21:42:15 39° WNW 21:45:46 10° N
Cosmos 1110 Rocket 4.2 21:38:47 10° SSW 21:43:56 72° WNW 21:49:09 10° NNE
SPOT 5 3.2 21:41:32 20° S 21:45:10 69° WSW 21:50:07 10° NNW
ATLAS CENTAUR R/B 1.8 21:41:34 10° NNW 21:45:52 62° NE 21:48:22 25° SE
Cosmos 968 Rocket 4.1 21:45:44 10° N 21:50:40 45° ENE 21:53:28 23° SE
COSMOS 2428 3.0 21:48:21 22° S 21:51:49 48° ESE 21:57:20 10° NE
Terra 1.8 21:49:22 25° S 21:52:11 82° WSW 21:56:59 10° NNW
Cosmos 1300 2.7 21:49:15 10° N 21:53:04 67° E 21:54:30 35° SSE
Cosmos 2322 3.6 21:48:35 13° SSW 21:53:35 72° ESE 21:59:14 10° NNE
FALCON 9 DEB 3.7 21:54:51 34° E 21:54:51 34° E 21:57:02 10° ENE
Cosmos 2061 Rocket 4.1 21:48:24 10° N 21:54:53 87° W 21:59:12 22° S
Cosmos 1864 Rocket 4.5 21:50:34 10° N 21:56:48 87° W 22:00:48 23° S
SL-24 R/B 4.3 21:54:07 10° N 21:58:58 72° E 22:01:30 28° S
Cosmos 2278 Rocket 3.4 21:55:09 10° N 22:00:16 33° NE 22:04:01 16° ESE
ATLAS CENTAUR R/B 4.4 21:59:32 17° ESE 22:00:40 17° E 22:06:01 10° ENE
Cosmos 405 2.9 21:57:16 10° NNW 22:00:43 79° W 22:01:49 41° S
Lacrosse 5 3.9 21:58:37 10° W 22:01:41 16° WSW 22:04:03 12° SSW
Cosmos 2123 Rocket 4.1 21:59:12 16° SSW 22:04:24 79° W 22:10:45 10° N
Cosmos 1340 3.2 22:06:52 22° SSW 22:09:03 56° WNW 22:12:47 10° N
SL-8 R/B 3.8 22:04:22 10° WNW 22:09:05 59° SSW 22:10:57 34° SE
Cosmos 1844 Rocket 3.5 22:03:58 10° NW 22:09:17 43° WSW 22:12:33 22° SSW
ARIANE 5 R/B 4.3 22:06:43 13° SSW 22:09:49 27° W 22:13:38 10° NW
Cosmos 1346 Rocket 3.3 22:11:16 37° SE 22:12:08 44° E 22:15:58 10° NNE
H-2A R/B 3.6 22:09:46 10° N 22:13:51 68° WNW 22:16:09 25° SSW
Cosmos 2233 Rocket 3.9 22:07:44 10° N 22:13:55 81° E 22:17:18 29° SSE
FALCON 9 DEB 2.7 22:11:30 10° WSW 22:14:36 87° NNW 22:17:42 10° ENE
GEOS 3 Rocket 4.1 22:11:18 21° ESE 22:14:46 56° NE 22:20:00 10° NNW
FALCON 9 DEB 2.7 22:18:01 64° SSW 22:18:23 79° SSE 22:21:31 10° ENE
NOSS 0 Rocket 4.4 22:16:43 29° SSE 22:19:08 42° ESE 22:24:57 10° NE
SL-4 R/B 4.2 22:22:17 12° E 22:22:17 12° E 22:22:42 10° E
Meteor 2-5 Rocket 3.8 22:18:55 22° SSW 22:22:35 75° W 22:28:12 10° N
FALCON 9 DEB 2.9 22:21:32 15° WSW 22:24:03 77° NNW 22:27:10 10° NE
Lacrosse 5 rocket 2.3 22:22:32 10° WSW 22:26:01 41° NNW 22:29:27 10° NE
ATLAS 3B R/B 2.7 22:20:32 10° SW 22:27:04 77° NW 22:33:52 10° NE
ERS-1 Rocket 4.5 22:24:30 15° SW 22:27:43 28° W 22:32:03 10° NW
Cosmos 1606 Rocket 3.8 22:23:27 10° N 22:27:54 60° E 22:29:16 40° SE
Cosmos 1892 Rocket 4.2 22:29:33 34° ESE 22:30:26 38° E 22:34:34 10° NNE
ALOS 2 3.8 22:32:40 24° ESE 22:34:14 31° ENE 22:38:06 10° N
Cosmos 1980 4.1 22:35:59 35° SSE 22:37:42 44° ESE 22:43:05 10° NE
Cosmos 1943 Rocket 4.5 22:36:03 10° N 22:39:27 16° NE 22:42:50 10° E
Spot 4 4.0 22:39:08 38° SE 22:40:49 65° ENE 22:45:35 10° N
Cosmos 1503 Rocket 4.4 22:36:16 10° NNW 22:41:35 56° ENE 22:43:52 32° SE
Cosmos 2333 Rocket 3.0 22:38:32 10° SW 22:44:06 50° WNW 22:49:42 10° NNE
USA 215 3.2 22:39:47 10° NE 22:46:21 83° SE 22:52:54 10° SW
Meteor 2-10 Rocket 3.7 22:47:59 10° NNW 22:53:00 61° W 22:54:49 37° SSW
Cosmos 2219 Rocket 3.1 22:49:25 10° SW 22:54:54 48° WNW 23:00:24 10° NNE
Cosmos 1464 Rocket 4.1 22:52:55 10° N 22:59:16 68° E 23:02:03 35° SSE
Cosmos 1867 3.5 22:54:30 10° NW 22:59:59 74° WSW 23:01:49 42° SSE
Cosmos 1607 4.1 22:55:15 10° NNW 23:01:42 71° NE 23:05:04 29° SE
Cosmos 389 Rocket 3.1 23:00:37 10° NNW 23:03:52 42° W 23:04:01 42° WSW
Iridium 2 3.8 23:05:20 56° SW 23:05:51 64° W 23:09:36 10° N
COBE Rocket 3.9 23:04:31 44° SSE 23:06:08 82° ENE 23:11:08 10° N
SL-16 R/B 3.4 23:06:18 25° ESE 23:07:10 26° ESE 23:11:44 10° NE
Cosmos 2237 Rocket 2.1 23:09:09 40° S 23:11:15 77° ESE 23:16:53 10° NNE
Cosmos 2228 4.1 23:08:31 10° NNW 23:12:35 37° W 23:13:45 31° SW
Meteor 1-4 Rocket 3.7 23:13:26 10° N 23:16:35 31° ENE 23:16:45 31° E
USA 267 3.3 23:14:47 19° ESE 23:19:43 81° NE 23:26:17 10° NW
Cosmos 1455 2.4 23:16:33 10° NNW 23:20:19 56° W 23:20:36 54° WSW
Cosmos 2369 Rocket 4.5 23:18:03 10° N 23:22:03 19° NE 23:26:01 10° E
Cosmos 1184 Rocket 3.0 23:22:45 64° NW 23:22:45 64° NW 23:25:47 10° N
ATLAS CENTAUR R/B 3.4 23:21:25 10° WNW 23:24:24 18° WSW 23:24:30 18° WSW
Okean 1-7 Rocket 3.5 23:27:36 58° S 23:28:28 90° NW 23:32:57 10° N
Cosmos 1777 Rocket 4.3 23:26:11 10° NNW 23:31:27 63° ENE 23:33:25 37° SE
Cosmos 2034 Rocket 3.9 23:27:08 10° N 23:33:22 85° E 23:35:44 41° SSE
Meteor 1-21 Rocket 4.2 23:33:20 41° SSW 23:35:24 79° WNW 23:41:09 10° N
COSMOS 2428 4.3 23:31:16 10° WSW 23:36:18 31° NW 23:41:22 10° N
Cosmos 1354 Rocket 4.2 23:32:52 10° NNW 23:38:07 59° WSW 23:39:29 45° SSW
Cosmos 192 4.4 23:38:55 42° SW 23:40:32 71° WNW 23:45:29 10° NNE
Cosmos 2297 4.3 23:37:59 10° NNW 23:43:30 51° ENE 23:46:30 26° ESE
Cosmos 2058 Rocket 3.6 23:39:35 10° NNW 23:43:50 45° W 23:44:34 40° WSW
Cosmos 1812 Rocket 4.0 23:40:08 10° N 23:44:24 51° ENE 23:45:17 43° ESE
Cosmos 2278 Rocket 2.8 23:39:09 10° NW 23:44:28 43° WSW 23:45:51 36° SW
